Regional Weather Roundup
Issued by NWS Grand Forks, ND

Home | Current Version | Previous Version | Graphics & Text | Print | Product List | Glossary On
Versions: 1 2 3 4 5 6 7 8 9 10 11 12 13 14 15 16 17 18 19 20 21 22 23 24 25 26 27 28 29 30 31 32 33 34 35 36 37 38 39 40 41 42 43 44 45 46 47 48 49 50
000
ASUS43 KFGF 251631
RWRFGF
PRAIRIE TO PINES  WEATHER ROUNDUP
NATIONAL WEATHER SERVICE EASTERN NORTH DAKOTA/GRAND FORKS ND
1000 AM CST SUN JAN 25 2015

 **SATELLITE DATA USED TO AUGMENT SKY COVER AT AUTOMATED STATIONS**
 *****  WEATHER ACROSS EASTERN NORTH DAKOTA  *****

CITY           SKY/WX    TMP DP  RH WIND       PRES   REMARKS
GRAND FORKS    MOSUNNY   16   8  71 CALM      30.05S
GRAND FRKS AFB SUNNY     15   8  75 NW3       30.05R
GRAND FRKS NWS   N/A     16 N/A N/A N1          N/A
DEVILS LAKE    CLOUDY    18  10  73 S5        30.00R WCI  11
FARGO          SUNNY     20  13  74 N9        30.03F WCI   9
WAHPETON ARPT  SUNNY     21  16  79 N13       30.03S WCI   9
$$

 ***** WEATHER ACROSS CENTRAL AND WESTERN NORTH DAKOTA  *****

CITY           SKY/WX    TMP DP  RH WIND       PRES   REMARKS
BISMARCK       CLOUDY    35  32  88 NW6       30.01R
MINOT          CLOUDY    23  19  85 W5        29.97R WCI  17
JAMESTOWN      CLOUDY    21  16  81 E5        29.99S WCI  15
MINOT AFB      CLOUDY    22  21  98 W2        29.97F
GARRISON         N/A     32  30  92 N5        29.97R
WILLISTON      CLOUDY    33  29  85 SW6       29.98F
DICKINSON      CLOUDY    33  28  81 W12       29.96S WCI  24
HETTINGER      CLOUDY    35  27  72 NW9       30.01S
$$

 *****  OTHER AIRPORT OBSERVATIONS IN OUR AREA  *****

CITY           SKY/WX    TMP DP  RH WIND       PRES   REMARKS
WALHALLA         N/A     16  10  79 CALM      30.03S
GRAFTON AIRPOR NOT AVBL
VALLEY CITY AR NOT AVBL
CANDO          CLOUDY    18  12  79 SW3       30.00S
CAVALIER APRT  FAIR      16  10  79 CALM      30.04S
GWINNER        SUNNY     21  18  86 N8        30.03S WCI  12
ROLLA          CLOUDY    16  16 100 SW7       29.97F WCI   6
 ***** THE ABOVE OBSERVATIONS ARE NON NWS ARE NOT QUALITY
       CONTROLLED AND MAY MIS-REPORT RAIN FOR SNOW...
$$

  *****  WEATHER ACROSS NORTHERN MINNESOTA  *****

CITY           SKY/WX    TMP DP  RH WIND       PRES   REMARKS
FLAG ISLAND    CLOUDY     7   0  72 SE5       30.03F WCI  -2
WARROAD        CLOUDY    10   1  67 E5        30.04S WCI   2
ROSEAU         CLOUDY    12   5  73 E5        30.04S WCI   4
HALLOCK        SUNNY     12   7  79 S3        30.05S
THF RVR FALLS  PTSUNNY   12   3  67 CALM      30.04R
BAUDETTE       CLOUDY     6  -1  73 E6        30.02S WCI  -4
WASKISH        CLOUDY    12   5  73 CALM      30.03R
CROOKSTON      SUNNY     16   9  73 CALM      30.06R
STEPHEN NDAWN    N/A     12   5  73 SE3         N/A
GREENBUSH NDAW   N/A     10   7  85 E5          N/A  WCI   2
$$
  *****  WEATHER ACROSS CENTRAL AND WEST MINNESOTA  *****

CITY           SKY/WX    TMP DP  RH WIND       PRES   REMARKS
FOSSTON        MOSUNNY   18  12  79 CALM      30.00S
BEMIDJI        CLOUDY    17  10  75 CALM      29.99S
PARK RAPIDS    CLOUDY    22  14  71 E5        29.98R WCI  16
ELBOW LAKE     CLOUDY    22  20  91 NW3       30.00R
WADENA         CLOUDY    23  18  80 E7        29.98S WCI  15
DETROIT LAKES  SUNNY     23  18  80 CALM      29.99S
MOORHEAD       SUNNY     19  16  86 N7        30.04R WCI  10
FERGUS FALLS   MOSUNNY   23  18  80 N3        30.04R
MORRIS MN      CLOUDY    25  21  86 NW10      30.01R WCI  15
STAPLES        CLOUDY    21  14  73 E3        30.00F
$$
  *****  WEATHER ELSEWHERE ACROSS MINNESOTA  *****

CITY           SKY/WX    TMP DP  RH WIND       PRES   REMARKS
DULUTH         LGT SNOW  19  13  77 NE10      30.00R WCI   7
INTRNTL FALLS  CLOUDY     5  -3  69 E3        30.05R
ELY            LGT SNOW   1  -2  85 CALM      30.06R
CLOQUET        LGT SNOW  19  14  79 E6        30.02R WCI  11
WHEATON        CLOUDY    19  16  86 NW8       30.06R WCI   9
BRAINERD       MOSUNNY   20  13  74 NE3       30.02R
HIBBING        PTSUNNY   16   8  71 E3        30.01R
ALEXANDRIA     CLOUDY    26  21  81 E7        29.99R WCI  18
SAINT CLOUD    CLOUDY    21  13  71 VRB6      30.02R WCI  13
MINNEAPOLIS    CLOUDY    21  12  68 NE12G21   30.00R WCI   9
$$

  *****  WEATHER ACROSS SOUTH DAKOTA  *****

CITY           SKY/WX    TMP DP  RH WIND       PRES   REMARKS
SIOUX FALLS    CLOUDY    33  31  92 N8        29.98R
BROOKINGS      NOT AVBL
WATERTOWN      CLOUDY    28  24  85 N7        29.98R WCI  21
HURON          CLOUDY    30  28  92 N7        30.02R WCI  23
SISSETON         N/A     23  19  85 N14       30.02R WCI  11
ABERDEEN       CLOUDY    27  23  85 NE7       30.02R WCI  19
MITCHELL       CLOUDY    33  30  88 N10       30.03R WCI  25
PIERRE         CLOUDY    37  31  78 NW15      30.02R
MOBRIDGE       CLOUDY    37  34  89 NW8       29.98S
RAPID CITY     SUNNY     36  23  59 VRB6      30.05R
$$

  *****  SOME WEATHER IN NEARBY STATES *****

CITY           SKY/WX    TMP DP  RH WIND       PRES   REMARKS
GLASGOW MT     PTCLDY    32  27  81 SE9       29.92F WCI  24
GREAT FALLS MT CLOUDY    52  36  54 SW23      29.95R
CHEYENNE WY    CLOUDY    41  25  53 NW15G23   30.13S
SCOTTSBLUFF NE CLOUDY    36  29  75 N9        30.14R
OMAHA NE       CLOUDY    36  33  89 N18       29.90R
DES MOINES IA  LGT SNOW  35  31  85 N17       29.84R FOG     WCI  25
DAVENPORT IA   LGT SNOW  29  25  85 NE22      29.79R VSB 1   WCI  15
CHICAGO IL     LGT SNOW  31  29  92 NE17      29.79R FOG     WCI  19
EAU CLAIRE WI  MOSUNNY   19   9  65 NE13      29.99R WCI   6
LA CROSSE WI   CLOUDY    27  16  63 VRB6      29.95R WCI  20
$$

  *****  SOME NATIONAL WEATHER *****

CITY           SKY/WX    TMP DP  RH WIND       PRES   REMARKS
LA GUARDIA NY  PTSUNNY   41  27  57 NW14      29.74S
RALEIGH NC     MOSUNNY   48  32  53 S6        29.95F
ATLANTA GA     MOSUNNY   49  32  52 W9        29.93F
NEW ORLEANS LA MOSUNNY   57  43  59 SW13      30.03F
OKLAHOMA CITY  SUNNY     52  29  41 NW30G38   30.00R
ALBUQUERQUE NM MOSUNNY   34  20  56 NW6       30.32R
SALT LAKE CITY PTSUNNY   35  29  78 CALM      30.47R
LOS ANGELES CA MOSUNNY   56  33  42 CALM      30.03S
BOISE ID       PTCLDY    29  26  89 CALM      30.48R
SEATTLE WA     MOCLDY    52  50  93 CALM      30.18F FOG
$$

*** WEATHER ACROSS MANITOBA...SASKATCHEWAN AND ONTARIO ***
                ***ONTARIO***

CITY           SKY/WX    TMP DP  RH WIND       PRES   REMARKS
GERALDTON      MOSUNNY  -11 -15  84 CALM      30.09R
THUNDER BAY      N/A     -2  -9  71 SW5       30.17R WCI -12
SIOUX LOOKOUT  CLOUDY    -6 -11  77 S7        30.08R WCI -20
TORONTO        MOSUNNY   14   1  57 N13       29.95R WCI   0
BIG TROUT LK   SUNNY    -20 -24  83 SW5       30.09F WCI -33
PICKLE LAKE    MOSUNNY   -9 -17  70 S6        30.07S WCI -23
DRYDEN         CLOUDY     0  -6  78 SE5       30.06R WCI -10
KENORA         CLOUDY     3  -6  66 SE5       30.03R WCI  -6
$$
                *** MANITOBA***

CITY           SKY/WX    TMP DP  RH WIND       PRES   REMARKS
BRANDON        CLOUDY    12  10  92 SW13      29.99S FOG     WCI  -3
DAUPHIN        PTSUNNY   16  12  86 W8        29.95R WCI   5
ISLAND LAKE    PTSUNNY   -8 -13  77 SE7       29.97F WCI -22
PILOT MOUND      N/A     14  10  85 SW7         N/A  WCI   4
THE PAS        CLOUDY     9   5  85 S10       29.81F WCI  -6
THOMPSON         N/A      0  -6  78 S6        29.86F WCI -12
WINNIPEG       PTSUNNY   16   7  67 S9        30.04S WCI   4
LYNN LAKE      LGT SNOW   1   0  92 S9        29.67F WCI -14
CHURCHILL      MOCLDY   -24 -29  76 S8        29.99F WCI -43
GILLAM         CLOUDY   -11 -17  77 SE5       29.96F WCI -23
$$
                ***SASKATCHEWAN***

CITY           SKY/WX    TMP DP  RH WIND       PRES   REMARKS
ESTEVAN        CLOUDY    25  23  93 SW8       29.95  WCI  16
KINDERSLEY     MOCLDY    30  25  80 S12       29.73F WCI  21
LLOYDMINSTER   CLOUDY    37  28  70 SW16      29.60F
PRINCE ALBERT  CLOUDY    30  27  86 SW8       29.71F WCI  23
REGINA         CLOUDY    25  25 100 SE13      29.89F FOG     WCI  13
YORKTON        CLEAR     16  14  93 S10       29.89F WCI   3
N. BATTLEFORD  CLOUDY    36  27  69 S9        29.68F
LA RONGE       LGTSLEET  25  23  93 S6        29.58F WCI  18
SASKATOON      MOCLDY    32  28  86 S16       29.76F WCI  21
SWIFT CURRENT  MOCLDY    36  25  64 SW21G26   29.76F
$$
NOTE: THESE ARE AUTOMATED STATIONS WITH LIMITED QUALITY CONTROL
      "FAIR" INDICATES FEW OR NO CLOUDS BELOW 12,000 FEET WITH NO
      SIGNIFICANT WEATHER AND/OR OBSTRUCTIONS TO VISIBILITY.
      SKY/WX - SKY CONDITION AND SIGNIFICANT WEATHER.
      TMP - AIR TEMPERATURE.    DP   - DEWPOINT TEMPERATURE.
      RH  - RELATIVE HUMIDITY.  PRES - PRESSURE.
      HX  - HEAT INDEX.         WCI  - WIND CHILL INDEX.
$



USA.gov is the U.S. government's official web portal to all federal, state and local government web resources and services.